EN

Hourly Weather Dibrova

Today, 18 May, Tuesday

Time Temperature Precipitation Wind Pressure Humidity
00:00 +14°C° 0 mm 1 mps 719 mmHg 85%
01:00 +14°C° 0 mm 1 mps 718 mmHg 86%
02:00 +12°C° 0 mm 0 mps 718 mmHg 91%
03:00 +12°C° 0 mm 3 mps 718 mmHg 93%
04:00 +12°C° 0.3 mm 2 mps 718 mmHg 94%
05:00 +11°C° 0.3 mm 1 mps 718 mmHg 100%
06:00 +12°C° 0.1 mm 2 mps 718 mmHg 100%
07:00 +13°C° 0 mm 2 mps 718 mmHg 96%
08:00 +13°C° 0 mm 3 mps 718 mmHg 85%
09:00 +15°C° 0 mm 2 mps 718 mmHg 83%
10:00 +16°C° 0 mm 1 mps 719 mmHg 83%
11:00 +14°C° 0.1 mm 3 mps 718 mmHg 92%
12:00 +16°C° 0.7 mm 3 mps 718 mmHg 91%
13:00 +15°C° 1 mm 4 mps 718 mmHg 91%
14:00 +16°C° 0.1 mm 5 mps 718 mmHg 88%
15:00 +16°C° 0 mm 5 mps 718 mmHg 87%
16:00 +16°C° 0 mm 6 mps 718 mmHg 84%
17:00 +15°C° 0.2 mm 6 mps 718 mmHg 89%
18:00 +12°C° 0.7 mm 8 mps 719 mmHg 95%
19:00 +14°C° 0.2 mm 7 mps 719 mmHg 91%
20:00 +12°C° 0 mm 7 mps 720 mmHg 89%
21:00 +12°C° 0 mm 7 mps 720 mmHg 90%
22:00 +12°C° 0 mm 7 mps 720 mmHg 91%
23:00 +11°C° 0 mm 7 mps 721 mmHg 93%

Tomorrow, 19 May, Wednesday

Time Temperature Precipitation Wind Pressure Humidity
00:00 +11°C° 0 mm 6 mps 721 mmHg 92%
01:00 +11°C° 0 mm 6 mps 721 mmHg 92%
02:00 +11°C° 0 mm 6 mps 721 mmHg 92%
03:00 +11°C° 0 mm 6 mps 721 mmHg 92%
04:00 +10°C° 0 mm 6 mps 721 mmHg 92%
05:00 +10°C° 0 mm 6 mps 722 mmHg 92%
06:00 +10°C° 0 mm 6 mps 722 mmHg 91%
07:00 +11°C° 0 mm 6 mps 723 mmHg 90%
08:00 +13°C° 0 mm 6 mps 723 mmHg 90%
09:00 +14°C° 0 mm 7 mps 724 mmHg 89%
10:00 +14°C° 0 mm 6 mps 724 mmHg 91%
11:00 +14°C° 0 mm 6 mps 724 mmHg 90%
12:00 +15°C° 0 mm 5 mps 724 mmHg 88%
13:00 +15°C° 0 mm 5 mps 724 mmHg 85%
14:00 +17°C° 0 mm 5 mps 724 mmHg 80%
15:00 +18°C° 0 mm 4 mps 724 mmHg 78%
16:00 +18°C° 0 mm 4 mps 723 mmHg 78%
17:00 +18°C° 0 mm 4 mps 723 mmHg 77%
18:00 +17°C° 0 mm 4 mps 723 mmHg 83%
19:00 +17°C° 0 mm 2 mps 723 mmHg 85%
20:00 +16°C° 0 mm 2 mps 723 mmHg 91%
21:00 +15°C° 0 mm 1 mps 724 mmHg 96%
22:00 +14°C° 0 mm 1 mps 723 mmHg 97%
23:00 +14°C° 0 mm 2 mps 724 mmHg 99%

Day after tomorrow, 20 May, Thursday

Time Temperature Precipitation Wind Pressure Humidity
00:00 +13°C° 0 mm 2 mps 724 mmHg 100%
01:00 +12°C° 0 mm 3 mps 723 mmHg 100%
02:00 +13°C° 0 mm 2 mps 723 mmHg 100%
03:00 +12°C° 0 mm 3 mps 722 mmHg 100%
04:00 +12°C° 0 mm 2 mps 723 mmHg 100%
05:00 +12°C° 0 mm 2 mps 723 mmHg 100%
06:00 +12°C° 0 mm 1 mps 723 mmHg 100%
07:00 +12°C° 0 mm 2 mps 723 mmHg 100%
08:00 +12°C° 0 mm 2 mps 723 mmHg 99%
09:00 +11°C° 0 mm 3 mps 723 mmHg 100%
10:00 +11°C° 0.1 mm 3 mps 723 mmHg 100%
11:00 +12°C° 0.2 mm 3 mps 723 mmHg 98%
12:00 +13°C° 0 mm 4 mps 724 mmHg 95%
13:00 +14°C° 0 mm 5 mps 723 mmHg 89%
14:00 +14°C° 0.4 mm 4 mps 723 mmHg 94%
15:00 +14°C° 2.2 mm 6 mps 723 mmHg 95%
16:00 +15°C° 0 mm 8 mps 723 mmHg 89%
17:00 +13°C° 0 mm 8 mps 723 mmHg 91%
18:00 +13°C° 0.1 mm 8 mps 723 mmHg 93%
19:00 +13°C° 1 mm 6 mps 723 mmHg 98%
20:00 +12°C° 3.6 mm 5 mps 724 mmHg 98%
21:00 +11°C° 2.6 mm 6 mps 725 mmHg 99%
22:00 +10°C° 0.6 mm 5 mps 725 mmHg 100%
23:00 +10°C° 0.5 mm 7 mps 726 mmHg 98%

21 May, Friday

Time Temperature Precipitation Wind Pressure Humidity
00:00 +10°C° 0 mm 6 mps 726 mmHg 96%
01:00 +10°C° 0 mm 7 mps 726 mmHg 96%
02:00 +10°C° 0 mm 6 mps 727 mmHg 96%
03:00 +9°C° 0 mm 6 mps 727 mmHg 96%
04:00 +9°C° 0 mm 6 mps 728 mmHg 97%
05:00 +9°C° 0 mm 6 mps 729 mmHg 97%
06:00 +8°C° 0 mm 6 mps 729 mmHg 97%
07:00 +9°C° 0 mm 6 mps 730 mmHg 97%
08:00 +8°C° 0 mm 5 mps 731 mmHg 97%
09:00 +9°C° 0 mm 5 mps 731 mmHg 97%
10:00 +11°C° 0 mm 4 mps 732 mmHg 95%
11:00 +12°C° 0 mm 4 mps 732 mmHg 95%
12:00 +12°C° 0 mm 4 mps 733 mmHg 91%
13:00 +14°C° 0 mm 4 mps 733 mmHg 84%
14:00 +16°C° 0 mm 3 mps 733 mmHg 81%
15:00 +15°C° 0 mm 4 mps 733 mmHg 79%
16:00 +15°C° 0.3 mm 4 mps 732 mmHg 79%
17:00 +15°C° 0 mm 4 mps 733 mmHg 79%
18:00 +14°C° 0 mm 4 mps 733 mmHg 78%
19:00 +15°C° 0 mm 2 mps 733 mmHg 81%
20:00 +14°C° 0 mm 1 mps 733 mmHg 84%
21:00 +13°C° 0 mm 1 mps 733 mmHg 82%
22:00 +13°C° 0 mm 1 mps 733 mmHg 83%
23:00 +12°C° 0 mm 1 mps 733 mmHg 86%

22 May, Saturday

Time Temperature Precipitation Wind Pressure Humidity
00:00 +12°C° 0 mm 1 mps 733 mmHg 86%
01:00 +11°C° 0 mm 1 mps 732 mmHg 86%
02:00 +11°C° 0 mm 1 mps 732 mmHg 86%
03:00 +10°C° 0 mm 1 mps 732 mmHg 86%
04:00 +10°C° 0 mm 1 mps 732 mmHg 84%
05:00 +10°C° 0 mm 1 mps 732 mmHg 84%
06:00 +10°C° 0 mm 1 mps 732 mmHg 84%
07:00 +11°C° 0 mm 1 mps 732 mmHg 92%
08:00 +13°C° 0 mm 2 mps 732 mmHg 91%
09:00 +14°C° 0 mm 3 mps 732 mmHg 86%
10:00 +16°C° 0 mm 3 mps 733 mmHg 86%
11:00 +17°C° 0 mm 3 mps 732 mmHg 78%
12:00 +18°C° 0 mm 3 mps 733 mmHg 79%
13:00 +19°C° 0 mm 3 mps 732 mmHg 80%
14:00 +19°C° 0 mm 3 mps 732 mmHg 80%
15:00 +19°C° 0 mm 4 mps 732 mmHg 77%
16:00 +19°C° 0 mm 3 mps 731 mmHg 76%
17:00 +19°C° 0 mm 3 mps 731 mmHg 77%
18:00 +18°C° 0.1 mm 3 mps 731 mmHg 77%
19:00 +17°C° 0 mm 3 mps 731 mmHg 87%
20:00 +16°C° 0 mm 2 mps 731 mmHg 95%
21:00 +15°C° 0 mm 2 mps 731 mmHg 94%
22:00 +15°C° 0 mm 1 mps 730 mmHg 96%
23:00 +15°C° 0 mm 1 mps 731 mmHg 95%

23 May, Sunday

Time Temperature Precipitation Wind Pressure Humidity
00:00 +15°C° 0 mm 2 mps 731 mmHg 83%
01:00 +14°C° 0 mm 2 mps 730 mmHg 72%
02:00 +14°C° 0 mm 2 mps 730 mmHg 70%
03:00 +14°C° 0 mm 1 mps 730 mmHg 70%
04:00 +14°C° 0 mm 1 mps 730 mmHg 68%
05:00 +13°C° 0 mm 1 mps 730 mmHg 70%
06:00 +12°C° 0 mm 0 mps 730 mmHg 75%
07:00 +13°C° 0 mm 0 mps 730 mmHg 84%
08:00 +15°C° 0 mm 0 mps 731 mmHg 88%
09:00 +19°C° 0 mm 1 mps 731 mmHg 75%
10:00 +18°C° 0 mm 4 mps 732 mmHg 88%
11:00 +17°C° 0 mm 3 mps 732 mmHg 89%
12:00 +18°C° 0 mm 3 mps 732 mmHg 88%
13:00 +19°C° 0 mm 2 mps 732 mmHg 86%
14:00 +20°C° 0 mm 2 mps 732 mmHg 85%
15:00 +19°C° 2.9 mm 1 mps 732 mmHg 95%
16:00 +19°C° 1.2 mm 2 mps 731 mmHg 94%
17:00 +19°C° 0.2 mm 3 mps 731 mmHg 93%
18:00 +18°C° 1.2 mm 2 mps 731 mmHg 97%
19:00 +17°C° 2.2 mm 2 mps 731 mmHg 99%
20:00 +16°C° 0.4 mm 1 mps 731 mmHg 100%
21:00 +15°C° 0 mm 0 mps 731 mmHg 100%
22:00 +16°C° 0 mm 1 mps 731 mmHg 100%
23:00 +15°C° 0 mm 0 mps 731 mmHg 100%
Show more

We Need Your Consent

Meteoprog and our Service Providers may store and access personal data such as cookies, device identifiers or other similar technologies on your device and process such data to personalise content and ads, as well as provide social media features and to analyse the traffic.

  • Store and/or access information on your device

    Cookies, device identifiers or other information can be stored or accessed on your device for the purposes indicated above.

  • Personalised ads and content, ad and content measurement, audience insights, and products development

    Ads and content can be personalised based on a profile. More data can be added to better personalise ads and content. Ad and content performance can be measured. Insights about the audience who saw the ads and content can be derived. Such data can be used to develop or improve user’s experience, systems and software.

By clicking ‘I Agree’ you will allow the use of indicated cookies, device identifiers, web beacons or other similar technologies. Your settings can be changed in the browser on your device.

For certain purposes, legitimate interests may be relied on, rather than consent. You can read more about this in our Privacy and Cookie Policy.